User: anonymous   Login
Location: Unspecified
(0.0000°N, 0.0000°E)
Time: 01:59:24
(UTC+01:00)
Language:

Cosmos 2263 Rocket - Orbit

View from above orbital plane
View from above orbital plane
View from above satellite
View from above satellite

Ground track
Ground track

The orbit data is extracted from the following two-line orbital elements,

1 22803U 93059B   15059.51238416 -.00000181  00000-0 -66227-4 0  9990
2 22803 070.9890 218.7393 0019030 229.4831 130.4635 14.16701996109359
Epoch (UTC): 28 February 2015 12:17:49
Eccentricity: 0.0019030
inclination: 70.9890°
perigee height: 823 km
apogee height: 850 km
right ascension of ascending node: 218.7393°
argument of perigee: 229.4831°
revolutions per day: 14.16701996
mean anomaly at epoch: 130.4635°
orbit number at epoch: 10935

The dashed part of the orbit path shows where the satellite is in the earth's shadow,  

DLR